[[{"header":{"parameterUnit":"m.s-1","parameterCategory":2,"la1":30.2991,"la2":30.254,"lo1":-89.0895,"lo2":-89.0444,"dy":0.0017,"dx":0.0017,"nx":28,"ny":28,"refTime":"2024-02-07T09:00:00:Z","depth":"0","parameterNumber":2,"parameterNumberName":"U-component_of_CURRENTS"},"data":[0,0,0,0,0,0,0,0,0,0,0,0,0,0,0,0,0,0,0,0,0,0,0,0,0,0,0,0,0,0,0,0,0,0,0,0,0,0,0,0,0,0,0,0,0,0,0,0,0,0,0,0,0,0,0,0,0,0,0.3343,0.3344,0,0.3366,0.3366,0.3366,0.3353,0.3353,0.3352,0.3352,0.3343,0.3343,0.3343,0,0,0,0,0,0,0,0,0,0,0,0,0,0.3293,0.3293,0.3343,0.3344,0.3344,0.3366,0.3366,0.3367,0.3353,0.3353,0.3352,0.3352,0.3343,0.3343,0.3343,0,0,0,0,0,0,0,0,0,0,0,0,0,0.3312,0.3293,0.3343,0.3343,0.3343,0.3366,0.3366,0.3367,0.3353,0.3353,0.3352,0.3352,0.3343,0.3343,0.3343,0.3355,0,0,0.3343,0.3343,0,0,0,0,0,0,0,0,0.3311,0.3313,0.3342,0.3343,0.3343,0.3359,0.3345,0.3362,0.3353,0.3346,0.3352,0.3351,0.3348,0.3347,0.3349,0.3354,0.3354,0.3343,0.3343,0.3343,0.3343,0,0,0,0,0,0,0,0.331,0.3313,0.3349,0.3343,0.3344,0.3344,0.3345,0.3348,0.3346,0.3347,0.3346,0.3354,0.3347,0.3349,0.3348,0.3354,0.3343,0.3343,0.3343,0.3343,0.3423,0.3425,0,0,0,0,0,0,0.3314,0.3311,0.3348,0.335,0.3329,0.3345,0.3347,0.3352,0.3347,0.3347,0.3355,0.3354,0.3349,0.3348,0.3348,0.3397,0.3343,0.3344,0.3344,0.3421,0.3424,0.3426,0,0,0,0,0,0,0.3312,0.3317,0.3347,0.3334,0.3338,0.3347,0.3352,0.3353,0.3359,0.3354,0.3353,0.3361,0.3348,0.3348,0.3369,0.3395,0.3344,0.3344,0.3419,0.3422,0.3425,0.3473,0,0,0,0,0,0,0.3311,0.3316,0.332,0.3334,0.3339,0.337,0.3353,0.3354,0.3366,0.3364,0.3359,0.3358,0.3348,0.3369,0.3369,0.3395,0.3344,0.3416,0.342,0.3424,0.3469,0.3477,0.3484,0,0,0,0,0,0.3309,0.3315,0.332,0.3324,0.3345,0.3372,0.3374,0.3376,0.3367,0.3377,0.3379,0.3358,0.3393,0.337,0.337,0.3396,0.3415,0.3419,0.3424,0.3465,0.3475,0.3484,0,0,0,0,0,0,0.3289,0.3315,0.332,0.3332,0.3357,0.3371,0.338,0.3382,0.3391,0.3391,0.3378,0.3378,0.3412,0.3401,0.3376,0.3435,0.3403,0.3408,0.3435,0.3444,0.3452,0.3473,0.3344,0,0,0,0,0,0.329,0.3302,0.3331,0.334,0.3356,0.337,0.338,0.3387,0.3399,0.3402,0.3401,0.3409,0.3431,0.3434,0.345,0.3471,0.3494,0.3493,0.3501,0.3507,0.3527,0.3586,0.3601,0.3441,0.3441,0.3441,0,0,0.3282,0.33,0.3305,0.3337,0.3354,0.3383,0.3374,0.3399,0.3424,0.3401,0.3428,0.3438,0.3447,0.3482,0.3495,0.3472,0.3567,0.3513,0.3518,0.3535,0.3592,0.3608,0.3622,0.3444,0.3444,0.3443,0,0,0.3278,0.3296,0.3309,0.3338,0.3376,0.3393,0.3404,0.3431,0.3445,0.3476,0.3478,0.3509,0.3519,0.3544,0.3554,0.3616,0.3614,0.3617,0.3662,0.3718,0.3732,0.3744,0.38,0.3816,0.3611,0.3611,0.3611,0,0.3267,0.3292,0.3317,0.3347,0.3374,0.34,0.343,0.3455,0.3484,0.3511,0.3491,0.3554,0.3556,0.3617,0.3642,0.3634,0.3665,0.3618,0.3728,0.3741,0.3752,0.3806,0.3824,0.3614,0.3614,0.3613,0.3613,0,0.328,0.3307,0.3321,0.3368,0.3403,0.3434,0.3483,0.3517,0.3534,0.3561,0.3625,0.3638,0.3676,0.3683,0.368,0.3767,0.3763,0.3736,0.37,0.3771,0.3824,0.3842,0.3618,0.3617,0.3616,0.3615,0,0,0.3233,0.3313,0.3318,0.335,0.3421,0.3448,0.3512,0.3578,0.3625,0.3656,0.3719,0.3762,0.3776,0.3792,0.3796,0.3841,0.3948,0.3826,0.3828,0.3876,0.4083,0.4103,0.4124,0.3936,0.394,0.3942,0.4089,0,0.3234,0.3289,0.3334,0.3391,0.3428,0.3491,0.3551,0.3619,0.367,0.3739,0.3781,0.3838,0.3815,0.3839,0.3888,0.3942,0.3996,0.3912,0.4013,0.4017,0.4021,0.4146,0.4084,0.4212,0.4106,0.4109,0.4111,0,0.3227,0.3272,0.3326,0.3419,0.3443,0.3484,0.3593,0.3645,0.3759,0.3809,0.3879,0.3913,0.4007,0.3963,0.4096,0.4043,0.4079,0.4106,0.4111,0.4129,0.4071,0.4124,0.4247,0.4164,0.4138,0.4136,0.4134,0,0.3177,0.3262,0.3304,0.3335,0.3445,0.349,0.3549,0.3663,0.3714,0.3854,0.3913,0.4019,0.4083,0.4146,0.4217,0.4165,0.4361,0.4287,0.434,0.434,0.431,0.4303,0.4361,0.4388,0.4388,0.4387,0.4387,0,0.3154,0.3187,0.3284,0.3308,0.3365,0.3462,0.3532,0.3618,0.3741,0.3832,0.3934,0.404,0.4135,0.4247,0.4279,0.4396,0.4416,0.4396,0.4399,0.4325,0.4319,0.426,0.4191,0.4393,0.4391,0.439,0.4389,0,0.3083,0.3148,0.3194,0.3307,0.3336,0.3373,0.3486,0.3546,0.3686,0.3812,0.3862,0.4076,0.4261,0.4346,0.449,0.4489,0.4481,0.4603,0.452,0.4511,0.445,0.4386,0.4281,0.414,0.4685,0.4687,0.4689,0,0.3048,0.3069,0.3156,0.3178,0.3223,0.3291,0.3345,0.3489,0.3574,0.3844,0.3917,0.4148,0.4312,0.4547,0.4639,0.4737,0.4558,0.4702,0.4589,0.4491,0.4421,0.4191,0.406,0.4566,0.4566,0.4567,0.4567,0,0.298,0.3009,0.3047,0.3091,0.3138,0.319,0.3296,0.3342,0.3555,0.3691,0.3926,0.4077,0.4396,0.4529,0.4698,0.474,0.4509,0.4709,0.463,0.4378,0.4109,0.3959,0.442,0.4569,0.4569,0.4569,0.4569,0.4569,0.2912,0.2913,0.2962,0.2988,0.3038,0.3087,0.309,0.3246,0.3361,0.3562,0.3821,0.4033,0.4367,0.4626,0.4636,0.4677,0.4538,0.4578,0.4525,0.4314,0.4122,0.4602,0.4733,0.4734,0.4734,0.4735,0.4735,0,0.2812,0.283,0.286,0.2883,0.2887,0.2962,0.3049,0.3052,0.3148,0.3451,0.3636,0.4009,0.4219,0.4441,0.4662,0.4536,0.4263,0.441,0.4073,0.3961,0.445,0.4393,0.4428,0.4428,0.4428,0.4428,0.4428,0.4428,0.2762,0.2744,0.276,0.2721,0.2739,0.2706,0.2719,0.2771,0.2949,0.3182,0.343,0.368,0.4158,0.4519,0.4552,0.4436,0.404,0.3899,0.3778,0.4165,0.4174,0.4183,0.4115,0.4091,0.409,0.3155,0.3149,0.3144]},{"header":{"parameterUnit":"m.s-1","parameterCategory":2,"la1":30.2991,"la2":30.254,"lo1":-89.0895,"lo2":-89.0444,"dy":0.0017,"dx":0.0017,"nx":28,"ny":28,"refTime":"2024-02-07T09:00:00:Z","depth":"0","parameterNumber":3,"parameterNumberName":"V-component_of_CURRENTS"},"data":[0,0,0,0,0,0,0,0,0,0,0,0,0,0,0,0,0,0,0,0,0,0,0,0,0,0,0,0,0,0,0,0,0,0,0,0,0,0,0,0,0,0,0,0,0,0,0,0,0,0,0,0,0,0,0,0,0,0,0.006,0.0059,0,-0.0047,-0.0049,-0.005,-0.012,-0.012,-0.0121,-0.0121,-0.0259,-0.0262,-0.0266,0,0,0,0,0,0,0,0,0,0,0,0,0,0.0133,0.0133,0.0061,0.0059,0.0058,-0.0047,-0.0049,-0.005,-0.012,-0.012,-0.0121,-0.0121,-0.0258,-0.0262,-0.0266,0,0,0,0,0,0,0,0,0,0,0,0,0,0.007,0.0132,0.0061,0.0012,0.0007,-0.0047,-0.0049,-0.0051,-0.012,-0.012,-0.0121,-0.0121,-0.0256,-0.0261,-0.0266,-0.029,0,0,-0.0282,-0.0284,0,0,0,0,0,0,0,0,0.0074,0.0067,0.002,0.0015,0.0009,-0.0069,-0.0074,-0.0132,-0.012,-0.0074,-0.0121,-0.0121,-0.0197,-0.0207,-0.0228,-0.0296,-0.0302,-0.0283,-0.0286,-0.0288,-0.0289,0,0,0,0,0,0,0,0.0078,0.0071,0.0016,0.0019,0.0012,-0.0029,-0.0038,-0.0085,-0.0134,-0.0078,-0.0083,-0.0092,-0.02,-0.0223,-0.0232,-0.0304,-0.0282,-0.0287,-0.029,-0.0292,-0.04,-0.04,0,0,0,0,0,0,0.0099,0.0075,0.0019,0.0013,0.0043,-0.003,-0.004,-0.0045,-0.0133,-0.0146,-0.0091,-0.0094,-0.0214,-0.0226,-0.0237,-0.0252,-0.0288,-0.0293,-0.0296,-0.0401,-0.04,-0.04,0,0,0,0,0,0,0.0101,0.0096,0.0024,0.0043,0.0031,-0.003,-0.0035,-0.0047,-0.0068,-0.0142,-0.0156,-0.01,-0.0215,-0.023,-0.0274,-0.0259,-0.0295,-0.03,-0.0401,-0.0401,-0.04,-0.0294,0,0,0,0,0,0,0.0104,0.0097,0.0102,0.0045,0.0031,0.0001,-0.0035,-0.0049,-0.0072,-0.0077,-0.0154,-0.0168,-0.0216,-0.0266,-0.0279,-0.0267,-0.0304,-0.0401,-0.0401,-0.04,-0.0298,-0.0291,-0.0284,0,0,0,0,0,0.0107,0.0118,0.0103,0.0096,0.0039,0.0001,-0.0009,-0.0056,-0.0072,-0.0077,-0.0128,-0.0165,-0.0273,-0.027,-0.0286,-0.0274,-0.0401,-0.0401,-0.04,-0.0301,-0.0292,-0.0284,0,0,0,0,0,0,0.0152,0.011,0.0093,0.009,0.0053,-0.0009,-0.0015,-0.0048,-0.0093,-0.0093,-0.0166,-0.0183,-0.0215,-0.0262,-0.0257,-0.0306,-0.0342,-0.0345,-0.0262,-0.0254,-0.0247,-0.0217,-0.0308,0,0,0,0,0,0.0166,0.0165,0.0114,0.0114,0.0101,0.0045,0.0025,-0.0004,-0.0051,-0.0072,-0.0125,-0.018,-0.0226,-0.0252,-0.0301,-0.0329,-0.037,-0.0332,-0.0325,-0.0318,-0.0306,-0.0363,-0.0359,-0.0399,-0.0399,-0.0399,0,0,0.0183,0.0162,0.016,0.0124,0.0094,0.0086,0.0032,0.0013,0.0007,-0.0079,-0.0101,-0.0158,-0.0229,-0.0258,-0.0277,-0.0294,-0.0327,-0.0318,-0.0312,-0.0303,-0.0362,-0.0358,-0.0354,-0.0398,-0.0399,-0.0399,0,0,0.0225,0.0201,0.0216,0.019,0.0155,0.0123,0.0123,0.0067,0.0043,0.001,-0.0048,-0.0096,-0.0167,-0.0214,-0.0248,-0.0233,-0.0288,-0.0246,-0.0186,-0.0241,-0.0238,-0.0235,-0.0269,-0.0271,-0.0242,-0.0242,-0.0242,0,0.025,0.0258,0.0213,0.0219,0.0212,0.0147,0.0164,0.0126,0.0064,0.0052,0.0019,-0.0081,-0.0147,-0.018,-0.0177,-0.0216,-0.0247,-0.0208,-0.0229,-0.0228,-0.0228,-0.0263,-0.0266,-0.0237,-0.0237,-0.0238,-0.0238,0,0.0296,0.0302,0.031,0.03,0.0288,0.0288,0.0241,0.0222,0.0186,0.0146,0.0104,0.0012,-0.0046,-0.0076,-0.0124,-0.0147,-0.0168,-0.0212,-0.0244,-0.0217,-0.0257,-0.0262,-0.0229,-0.0231,-0.0233,-0.0234,0,0,0.0355,0.0346,0.0349,0.0369,0.0334,0.0335,0.0328,0.0306,0.0312,0.0237,0.0236,0.0137,0.0088,0.0047,-0.0023,-0.0075,-0.0105,-0.0129,-0.0135,-0.0149,-0.0204,-0.0211,-0.0218,-0.0147,-0.0148,-0.0148,-0.0227,0,0.0407,0.0447,0.0425,0.0471,0.0492,0.0443,0.0448,0.042,0.0377,0.0355,0.0258,0.0223,0.0135,0.0113,0.0048,-0.0064,-0.0115,-0.0078,-0.024,-0.0245,-0.0244,-0.0224,-0.0194,-0.0261,-0.0233,-0.0234,-0.0234,0,0.0462,0.0484,0.054,0.0571,0.0578,0.0591,0.06,0.0599,0.0542,0.0502,0.0442,0.0368,0.0287,0.0203,0.0034,0.0066,-0.0054,-0.0149,-0.0156,-0.0202,-0.0262,-0.0289,-0.0272,-0.0511,-0.0243,-0.0242,-0.0242,0,0.0537,0.057,0.0627,0.0632,0.0647,0.0668,0.0677,0.0645,0.0666,0.0601,0.0599,0.048,0.0439,0.0269,0.0078,0.0056,-0.0105,-0.0169,-0.0289,-0.0291,-0.0317,-0.032,-0.0539,-0.0291,-0.0291,-0.0291,-0.0291,0,0.0602,0.0649,0.0666,0.0695,0.0769,0.0756,0.0816,0.0794,0.0789,0.0841,0.0691,0.0702,0.0455,0.0336,0.0131,-0.0075,-0.0069,-0.0267,-0.0311,-0.0279,-0.0277,-0.0529,-0.0674,-0.0294,-0.0293,-0.0293,-0.0292,0,0.0673,0.0681,0.0753,0.0788,0.0806,0.0862,0.0915,0.0963,0.0932,0.0995,0.0989,0.0878,0.0727,0.0474,0.0214,0.0018,-0.0335,-0.0281,-0.0211,-0.0246,-0.0587,-0.0726,-0.0992,-0.1089,-0.0428,-0.0429,-0.043,0,0.0711,0.0756,0.0826,0.0877,0.0896,0.0964,0.1021,0.1027,0.1094,0.1121,0.1179,0.1058,0.1007,0.0615,0.0245,-0.0105,-0.0347,-0.0321,-0.0375,-0.0593,-0.0782,-0.0884,-0.0953,-0.0368,-0.0368,-0.0368,-0.0368,0,0.0787,0.0812,0.0869,0.0973,0.1047,0.1134,0.1223,0.1302,0.135,0.1404,0.1486,0.1456,0.1099,0.0781,0.029,0.0019,-0.0486,-0.0332,-0.0588,-0.0772,-0.0869,-0.0985,-0.0323,-0.0368,-0.0368,-0.0368,-0.0368,-0.0368,0.0845,0.09,0.0978,0.108,0.1174,0.1306,0.1399,0.1517,0.1656,0.1797,0.1758,0.178,0.1291,0.063,0.0221,-0.0489,-0.0513,-0.0698,-0.0851,-0.0935,-0.103,-0.035,-0.043,-0.0431,-0.0431,-0.0431,-0.0432,0,0.0914,0.0978,0.108,0.1208,0.133,0.136,0.1542,0.1662,0.1855,0.2012,0.2091,0.1922,0.1279,0.061,-0.0336,-0.0879,-0.1092,-0.1196,-0.1353,-0.1401,-0.082,-0.0817,-0.0946,-0.0946,-0.0946,-0.0945,-0.0945,-0.0945,0.0954,0.106,0.1111,0.1313,0.1414,0.1589,0.1703,0.1895,0.2054,0.2272,0.2354,0.2366,0.1882,0.0122,-0.1118,-0.143,-0.1794,-0.1896,-0.2089,-0.1721,-0.1686,-0.1653,-0.1685,-0.1995,-0.1996,-0.2575,-0.2581,-0.2586]}],[{"header":{"parameterUnit":"m.s-1","parameterCategory":2,"la1":30.2991,"la2":30.254,"lo1":-89.0895,"lo2":-89.0444,"dy":0.0017,"dx":0.0017,"nx":28,"ny":28,"refTime":"2024-02-07T09:00:00:Z","depth":"2","parameterNumber":2,"parameterNumberName":"U-component_of_CURRENTS"},"data":[0,0,0,0,0,0,0,0,0,0,0,0,0,0,0,0,0,0,0,0,0,0,0,0,0,0,0,0,0,0,0,0,0,0,0,0,0,0,0,0,0,0,0,0,0,0,0,0,0,0,0,0,0,0,0,0,0,0,0.299,0.299,0,0.3032,0.3032,0.3032,0.3035,0.3035,0.3035,0.3034,0.3051,0.3051,0.3052,0,0,0,0,0,0,0,0,0,0,0,0,0,0.2907,0.2908,0.299,0.2991,0.2991,0.3032,0.3032,0.3032,0.3035,0.3035,0.3035,0.3034,0.305,0.3051,0.3052,0,0,0,0,0,0,0,0,0,0,0,0,0,0.2942,0.2909,0.299,0.3,0.3002,0.3032,0.3032,0.3032,0.3035,0.3035,0.3034,0.3034,0.305,0.3051,0.3052,0.3062,0,0,0.3055,0.3055,0,0,0,0,0,0,0,0,0.294,0.2945,0.2998,0.2999,0.3001,0.3031,0.3009,0.3042,0.3035,0.3019,0.3034,0.3034,0.3044,0.3045,0.3049,0.3063,0.3064,0.3055,0.3055,0.3056,0.3056,0,0,0,0,0,0,0,0.2938,0.2943,0.3003,0.2999,0.3001,0.3001,0.3006,0.3015,0.3029,0.302,0.3021,0.3031,0.3044,0.3048,0.305,0.3064,0.3055,0.3055,0.3056,0.3056,0.3151,0.3153,0,0,0,0,0,0,0.294,0.2941,0.3002,0.3004,0.2973,0.3003,0.3008,0.3019,0.303,0.3032,0.3032,0.3032,0.3047,0.3049,0.305,0.3111,0.3056,0.3056,0.3057,0.3149,0.3151,0.3153,0,0,0,0,0,0,0.2938,0.2945,0.3,0.2976,0.2984,0.3005,0.3017,0.302,0.3035,0.3039,0.3041,0.3046,0.3047,0.3049,0.3077,0.3109,0.3057,0.3058,0.3147,0.315,0.3152,0.3201,0,0,0,0,0,0,0.2936,0.2944,0.2955,0.2976,0.2985,0.303,0.3018,0.3021,0.3043,0.3043,0.3052,0.3052,0.3047,0.3075,0.3077,0.311,0.3058,0.3144,0.3148,0.3151,0.3197,0.3205,0.3212,0,0,0,0,0,0.2933,0.2947,0.2955,0.2963,0.2999,0.3032,0.3036,0.3048,0.3044,0.3058,0.3067,0.3053,0.3101,0.3077,0.3079,0.3113,0.3142,0.3147,0.3151,0.3193,0.3204,0.3212,0,0,0,0,0,0,0.2912,0.295,0.2959,0.2983,0.3013,0.3033,0.305,0.3057,0.3074,0.3077,0.3071,0.3073,0.3116,0.3109,0.3083,0.3154,0.3122,0.3128,0.3154,0.3164,0.3171,0.3187,0.3059,0,0,0,0,0,0.2916,0.2939,0.2973,0.2993,0.3011,0.3033,0.3048,0.3061,0.3079,0.3087,0.3094,0.3109,0.3135,0.3143,0.3164,0.3192,0.3209,0.322,0.3227,0.3234,0.3251,0.3301,0.3315,0.3168,0.3168,0.3168,0,0,0.2912,0.2938,0.2949,0.2992,0.3014,0.3045,0.3041,0.3075,0.3103,0.3086,0.3124,0.3139,0.3152,0.3192,0.321,0.3189,0.3286,0.3239,0.3245,0.3258,0.3307,0.3321,0.3334,0.3171,0.3171,0.317,0,0,0.2917,0.2944,0.2965,0.2997,0.3043,0.3062,0.3076,0.311,0.313,0.3167,0.3172,0.3208,0.3231,0.3256,0.3268,0.3332,0.3331,0.3339,0.3384,0.3432,0.3445,0.3456,0.35,0.3514,0.3336,0.3336,0.3336,0,0.291,0.2944,0.2976,0.301,0.3041,0.3072,0.3104,0.3133,0.3171,0.32,0.3187,0.3258,0.3265,0.3327,0.3354,0.3349,0.3376,0.3341,0.3442,0.3453,0.3463,0.3506,0.3521,0.3339,0.3339,0.3339,0.3338,0,0.2931,0.2966,0.2985,0.3039,0.3076,0.3113,0.3162,0.32,0.3224,0.3254,0.3323,0.3339,0.3382,0.3394,0.3393,0.3477,0.3473,0.3449,0.3414,0.3481,0.3522,0.3537,0.3343,0.3342,0.3341,0.3341,0,0,0.2895,0.2981,0.2989,0.3022,0.3098,0.3127,0.3192,0.3259,0.3307,0.3346,0.341,0.346,0.3477,0.3494,0.3502,0.3544,0.364,0.3534,0.3535,0.3571,0.3756,0.3742,0.3757,0.3633,0.3636,0.3638,0.3756,0,0.2901,0.2963,0.3009,0.3071,0.3109,0.3172,0.3232,0.3301,0.3355,0.3425,0.3469,0.3529,0.3512,0.3541,0.3585,0.3636,0.3682,0.3611,0.3692,0.3695,0.3669,0.3775,0.3492,0.3572,0.377,0.3773,0.3774,0,0.29,0.2949,0.3006,0.3101,0.3125,0.3168,0.3274,0.333,0.3442,0.3494,0.3564,0.3599,0.3689,0.3651,0.3769,0.3727,0.3755,0.3778,0.3782,0.3766,0.371,0.3538,0.3592,0.3799,0.3797,0.3796,0.3794,0,0.2853,0.2944,0.2987,0.3019,0.3129,0.3174,0.3237,0.335,0.3405,0.3541,0.3601,0.3698,0.376,0.3814,0.3875,0.3833,0.4,0.3936,0.3947,0.3945,0.3719,0.3694,0.4018,0.4018,0.4018,0.4018,0.4017,0,0.2835,0.2871,0.297,0.2995,0.3056,0.3152,0.3226,0.3314,0.3437,0.3524,0.3626,0.3718,0.3808,0.3903,0.3929,0.4011,0.4045,0.3993,0.399,0.373,0.3705,0.3905,0.389,0.4022,0.4021,0.402,0.4019,0,0.2768,0.2833,0.2884,0.2998,0.3029,0.3073,0.3193,0.3254,0.3395,0.3514,0.3563,0.3755,0.3909,0.3984,0.4103,0.4086,0.4152,0.4161,0.3859,0.382,0.4045,0.4032,0.4186,0.4187,0.4187,0.4188,0.4188,0,0.2737,0.2757,0.2853,0.2877,0.2925,0.3001,0.3058,0.3207,0.3287,0.3537,0.36,0.3802,0.3922,0.4108,0.4145,0.4206,0.4222,0.3957,0.3824,0.4089,0.4071,0.4056,0.4042,0.3536,0.3531,0.3527,0.3524,0,0.2673,0.2704,0.2744,0.2798,0.285,0.2903,0.3011,0.3055,0.3258,0.3379,0.3574,0.3691,0.3925,0.3897,0.401,0.3995,0.3925,0.3881,0.4245,0.3552,0.349,0.3468,0.3472,0.3489,0.3492,0.3495,0.3497,0.3498,0.2611,0.2616,0.2668,0.2703,0.2757,0.2798,0.2805,0.2945,0.3045,0.3206,0.342,0.3519,0.3641,0.3689,0.3626,0.3593,0.3841,0.3651,0.3657,0.3668,0.3587,0.3531,0.3522,0.3525,0.3528,0.3531,0.3534,0,0.2519,0.254,0.2574,0.2607,0.261,0.2686,0.2761,0.2753,0.2825,0.3039,0.3169,0.3028,0.3072,0.3175,0.3096,0.3141,0.3035,0.2998,0.2816,0.286,0.2896,0.2765,0.2487,0.2483,0.2479,0.2475,0,0,0.2473,0.2458,0.2474,0.2442,0.2467,0.2436,0.2441,0.2471,0.2581,0.262,0.268,0.2952,0.3122,0.2755,0.2749,0.2598,0.2686,0.2505,0.3365,0.3197,0.3227,0.3321,0.3179,0,0,0,0,0]},{"header":{"parameterUnit":"m.s-1","parameterCategory":2,"la1":30.2991,"la2":30.254,"lo1":-89.0895,"lo2":-89.0444,"dy":0.0017,"dx":0.0017,"nx":28,"ny":28,"refTime":"2024-02-07T09:00:00:Z","depth":"2","parameterNumber":3,"parameterNumberName":"V-component_of_CURRENTS"},"data":[0,0,0,0,0,0,0,0,0,0,0,0,0,0,0,0,0,0,0,0,0,0,0,0,0,0,0,0,0,0,0,0,0,0,0,0,0,0,0,0,0,0,0,0,0,0,0,0,0,0,0,0,0,0,0,0,0,0,-0.0005,-0.0006,0,-0.0102,-0.0104,-0.0105,-0.0167,-0.0167,-0.0168,-0.0168,-0.0292,-0.0295,-0.0298,0,0,0,0,0,0,0,0,0,0,0,0,0,0.006,0.006,-0.0005,-0.0006,-0.0007,-0.0102,-0.0104,-0.0105,-0.0167,-0.0167,-0.0168,-0.0168,-0.0291,-0.0294,-0.0298,0,0,0,0,0,0,0,0,0,0,0,0,0,0.0003,0.006,-0.0005,-0.0049,-0.0053,-0.0102,-0.0104,-0.0106,-0.0167,-0.0167,-0.0168,-0.0168,-0.0289,-0.0294,-0.0298,-0.032,0,0,-0.0313,-0.0315,0,0,0,0,0,0,0,0,0.0007,0.0001,-0.0041,-0.0046,-0.0051,-0.0122,-0.0126,-0.0178,-0.0167,-0.0125,-0.0168,-0.0168,-0.0236,-0.0245,-0.0264,-0.0326,-0.0331,-0.0313,-0.0316,-0.0318,-0.0319,0,0,0,0,0,0,0,0.0011,0.0004,-0.0045,-0.0042,-0.0048,-0.0086,-0.0094,-0.0137,-0.0179,-0.0129,-0.0133,-0.0142,-0.0239,-0.026,-0.0268,-0.0333,-0.0313,-0.0317,-0.032,-0.0322,-0.0418,-0.0418,0,0,0,0,0,0,0.003,0.0008,-0.0042,-0.0048,-0.0021,-0.0086,-0.0096,-0.01,-0.0178,-0.019,-0.0141,-0.0144,-0.0252,-0.0262,-0.0272,-0.0285,-0.0318,-0.0322,-0.0325,-0.0418,-0.0418,-0.0418,0,0,0,0,0,0,0.0031,0.0026,-0.0038,-0.0021,-0.0032,-0.0086,-0.0091,-0.0102,-0.0121,-0.0187,-0.02,-0.0149,-0.0252,-0.0266,-0.0306,-0.0291,-0.0324,-0.0328,-0.0419,-0.0418,-0.0418,-0.0322,0,0,0,0,0,0,0.0034,0.0028,0.0031,-0.002,-0.0032,-0.0059,-0.0091,-0.0103,-0.0124,-0.0129,-0.0198,-0.021,-0.0254,-0.0298,-0.031,-0.0298,-0.0332,-0.0419,-0.0418,-0.0418,-0.0325,-0.0318,-0.0312,0,0,0,0,0,0.0037,0.0046,0.0032,0.0026,-0.0025,-0.0058,-0.0068,-0.011,-0.0124,-0.0129,-0.0175,-0.0208,-0.0304,-0.0302,-0.0316,-0.0304,-0.0419,-0.0419,-0.0418,-0.0328,-0.0319,-0.0312,0,0,0,0,0,0,0.0075,0.0039,0.0023,0.002,-0.0012,-0.0068,-0.0074,-0.0103,-0.0143,-0.0144,-0.0208,-0.0224,-0.0253,-0.0294,-0.029,-0.0332,-0.0366,-0.0368,-0.0293,-0.0285,-0.0279,-0.0254,-0.0336,0,0,0,0,0,0.0088,0.0087,0.0042,0.0042,0.003,-0.002,-0.0038,-0.0064,-0.0106,-0.0124,-0.0172,-0.0221,-0.0262,-0.0285,-0.0329,-0.0353,-0.0394,-0.0355,-0.0349,-0.0343,-0.0333,-0.0386,-0.0383,-0.0416,-0.0416,-0.0416,0,0,0.0103,0.0084,0.0082,0.005,0.0023,0.0017,-0.0032,-0.0049,-0.0053,-0.0131,-0.015,-0.0201,-0.0265,-0.029,-0.0306,-0.0322,-0.0354,-0.0342,-0.0336,-0.033,-0.0385,-0.0382,-0.0379,-0.0416,-0.0416,-0.0416,0,0,0.0139,0.0118,0.0131,0.0108,0.0078,0.005,0.005,0.0,-0.0021,-0.005,-0.0102,-0.0145,-0.0208,-0.025,-0.0279,-0.0266,-0.0319,-0.0277,-0.0223,-0.0274,-0.0271,-0.0269,-0.031,-0.0312,-0.0272,-0.0272,-0.0272,0,0.0161,0.0168,0.0129,0.0134,0.0129,0.0072,0.0087,0.0054,-0.0002,-0.0012,-0.0042,-0.0132,-0.019,-0.022,-0.0216,-0.025,-0.0282,-0.0243,-0.0263,-0.0263,-0.0262,-0.0305,-0.0309,-0.0267,-0.0268,-0.0268,-0.0268,0,0.0201,0.0208,0.0214,0.0208,0.0197,0.0198,0.0157,0.014,0.0108,0.0073,0.0034,-0.0048,-0.01,-0.0125,-0.0168,-0.0189,-0.0213,-0.0248,-0.0277,-0.0253,-0.0299,-0.0305,-0.026,-0.0262,-0.0263,-0.0265,0,0,0.025,0.0246,0.0248,0.0267,0.0238,0.024,0.0235,0.0216,0.022,0.0154,0.0151,0.0065,0.002,-0.0017,-0.0079,-0.0126,-0.0158,-0.0175,-0.018,-0.0203,-0.0259,-0.0269,-0.0277,-0.0192,-0.0193,-0.0193,-0.0288,0,0.0296,0.0333,0.0316,0.0359,0.0377,0.0336,0.0341,0.0317,0.0279,0.0257,0.0171,0.0139,0.0062,0.0042,-0.0017,-0.012,-0.017,-0.0129,-0.0289,-0.0294,-0.0296,-0.0283,-0.0249,-0.033,-0.0295,-0.0296,-0.0297,0,0.0344,0.0364,0.0416,0.0446,0.0452,0.0466,0.0475,0.0475,0.0423,0.0387,0.0332,0.0266,0.0191,0.0119,-0.0042,-0.0007,-0.0122,-0.0209,-0.0216,-0.0262,-0.0315,-0.0352,-0.0343,-0.0307,-0.0307,-0.0306,-0.0305,0,0.0407,0.044,0.0492,0.0496,0.0513,0.0533,0.0543,0.0516,0.0534,0.0475,0.0472,0.0363,0.0322,0.0166,-0.001,-0.0026,-0.0186,-0.0239,-0.0358,-0.036,-0.0382,-0.0384,-0.0358,-0.0358,-0.0357,-0.0357,-0.0357,0,0.0464,0.0505,0.0526,0.0551,0.062,0.061,0.0665,0.0646,0.0642,0.0685,0.0553,0.0555,0.0334,0.0219,0.0032,-0.0166,-0.0159,-0.0342,-0.0384,-0.0347,-0.0345,-0.0369,-0.037,-0.0361,-0.036,-0.0359,-0.0359,0,0.0523,0.0532,0.0597,0.0633,0.0652,0.0704,0.0756,0.0797,0.0769,0.0821,0.0816,0.0707,0.0557,0.0328,0.0083,-0.0092,-0.0296,-0.0374,-0.0306,-0.0338,-0.0451,-0.0445,-0.0521,-0.0522,-0.0523,-0.0524,-0.0525,0,0.0555,0.0596,0.0664,0.0712,0.0731,0.0796,0.0848,0.0856,0.0912,0.0927,0.0973,0.0851,0.0781,0.0412,0.0084,-0.0239,-0.0289,-0.0424,-0.0462,-0.0433,-0.0467,-0.0459,-0.0453,-0.0456,-0.0456,-0.0456,-0.0456,0,0.0619,0.0643,0.0696,0.0796,0.0866,0.0946,0.1025,0.1093,0.1132,0.1169,0.1219,0.1172,0.0833,0.0521,0.0077,-0.0148,-0.0372,-0.0435,-0.0427,-0.0411,-0.0377,-0.0408,-0.0403,-0.0456,-0.0456,-0.0456,-0.0456,-0.0456,0.0668,0.0717,0.0791,0.0888,0.0974,0.1091,0.1174,0.1269,0.1379,0.1472,0.1424,0.1364,0.1,0.0444,0.0046,-0.0373,-0.0366,-0.0515,-0.0512,-0.0511,-0.0477,-0.0446,-0.0532,-0.0532,-0.0532,-0.0533,-0.0533,0,0.0728,0.0784,0.0878,0.0995,0.1101,0.1138,0.1293,0.1386,0.1531,0.1616,0.1648,0.1327,0.0956,0.053,-0.0085,-0.0457,-0.0495,-0.0577,-0.0538,-0.0534,-0.0532,-0.0499,-0.056,-0.0561,-0.0562,-0.0563,0,0,0.076,0.0854,0.0899,0.1076,0.117,0.1322,0.142,0.1561,0.1656,0.1739,0.1721,0.1643,0.1118,0.068,0.0162,-0.0195,-0.0281,-0.0273,-0.0211,-0.01,-0.0093,-0.0458,-0.0398,0,0,0,0,0]}],[{"header":{"parameterUnit":"m.s-1","parameterCategory":2,"la1":30.2991,"la2":30.254,"lo1":-89.0895,"lo2":-89.0444,"dy":0.0017,"dx":0.0017,"nx":28,"ny":28,"refTime":"2024-02-07T09:00:00:Z","depth":"4","parameterNumber":2,"parameterNumberName":"U-component_of_CURRENTS"},"data":[0,0,0,0,0,0,0,0,0,0,0,0,0,0,0,0,0,0,0,0,0,0,0,0,0,0,0,0,0,0,0,0,0,0,0,0,0,0,0,0,0,0,0,0,0,0,0,0,0,0,0,0,0,0,0,0,0,0,0.2044,0.2045,0,0.2134,0.2134,0.2135,0.2205,0.2206,0.2207,0.2208,0.2311,0.2313,0.2315,0,0,0,0,0,0,0,0,0,0,0,0,0,0.1917,0.1919,0.2044,0.2046,0.2047,0.2133,0.2134,0.2135,0.2205,0.2206,0.2207,0.2208,0.2311,0.2313,0.2315,0,0,0,0,0,0,0,0,0,0,0,0,0,0.1983,0.192,0.2044,0.2094,0.21,0.2133,0.2134,0.2136,0.2205,0.2206,0.2207,0.2209,0.231,0.2313,0.2316,0.2305,0,0,0.2324,0.2325,0,0,0,0,0,0,0,0,0.198,0.1988,0.2085,0.2091,0.2097,0.2162,0.2128,0.2194,0.2204,0.2162,0.2208,0.2209,0.2263,0.227,0.228,0.231,0.2314,0.2324,0.2326,0.2327,0.2328,0,0,0,0,0,0,0,0.1975,0.1984,0.2077,0.2087,0.2094,0.2107,0.2117,0.214,0.2202,0.2166,0.2172,0.2185,0.2267,0.2277,0.2283,0.2316,0.2324,0.2327,0.2329,0.233,0.2482,0.2484,0,0,0,0,0,0,0.1969,0.198,0.2074,0.208,0.2044,0.2108,0.212,0.2137,0.2201,0.2213,0.2184,0.2188,0.2271,0.2279,0.2287,0.24,0.2327,0.233,0.2332,0.2479,0.2482,0.2485,0,0,0,0,0,0,0.1966,0.1977,0.207,0.2034,0.2047,0.2109,0.2128,0.2139,0.2194,0.2216,0.2228,0.2234,0.2273,0.2283,0.235,0.24,0.2331,0.2334,0.2477,0.248,0.2483,0.2548,0,0,0,0,0,0,0.1962,0.1975,0.2006,0.2033,0.2049,0.212,0.2127,0.2139,0.2199,0.2207,0.2262,0.227,0.2275,0.2346,0.2353,0.2402,0.2336,0.2474,0.2478,0.2482,0.2543,0.2553,0.2562,0,0,0,0,0,0.1957,0.1986,0.2006,0.2019,0.2082,0.2122,0.2132,0.2178,0.22,0.2231,0.2273,0.2271,0.2379,0.235,0.2357,0.2409,0.2472,0.2477,0.2482,0.2538,0.2551,0.2562,0,0,0,0,0,0,0.1948,0.1996,0.202,0.2064,0.2106,0.2136,0.2176,0.2201,0.2257,0.228,0.2295,0.2307,0.2387,0.2389,0.2356,0.2467,0.2427,0.2434,0.2467,0.2479,0.2489,0.2494,0.2338,0,0,0,0,0,0.1958,0.1999,0.2039,0.2081,0.2106,0.2148,0.2179,0.2211,0.2254,0.2282,0.232,0.2364,0.2406,0.2436,0.247,0.2525,0.253,0.2567,0.2576,0.2584,0.2595,0.264,0.2654,0.2502,0.2502,0.2502,0,0,0.1967,0.2002,0.2026,0.2084,0.2122,0.2162,0.2172,0.2233,0.2279,0.2283,0.237,0.2403,0.2429,0.2497,0.2533,0.251,0.2633,0.2591,0.2597,0.2604,0.2647,0.2661,0.2674,0.2506,0.2505,0.2504,0,0,0.1986,0.2038,0.2072,0.2113,0.2181,0.2205,0.2231,0.2289,0.2335,0.2406,0.2428,0.2491,0.2553,0.2582,0.2602,0.2684,0.2683,0.2706,0.2758,0.2802,0.2814,0.2825,0.2855,0.2868,0.2709,0.2709,0.2709,0,0.1998,0.2046,0.2089,0.2132,0.2175,0.2227,0.2271,0.2319,0.2395,0.2438,0.2449,0.2564,0.259,0.2664,0.2702,0.2706,0.2728,0.2708,0.2813,0.2824,0.2834,0.2862,0.2876,0.2713,0.2713,0.2712,0.2712,0,0.2029,0.2087,0.2115,0.2186,0.2233,0.2288,0.2349,0.2415,0.2473,0.2516,0.2621,0.266,0.2726,0.275,0.2755,0.2849,0.2841,0.2819,0.2779,0.2853,0.2878,0.2891,0.2718,0.2717,0.2716,0.2715,0,0,0.2002,0.2114,0.213,0.2175,0.2273,0.2308,0.2398,0.248,0.2547,0.2628,0.2711,0.2792,0.2826,0.2851,0.2872,0.2916,0.3011,0.2912,0.2912,0.2932,0.3112,0.294,0.2937,0.3013,0.3016,0.3018,0.3101,0,0.2019,0.2101,0.2157,0.2245,0.2291,0.2374,0.2449,0.2538,0.2616,0.271,0.2774,0.2861,0.286,0.291,0.2956,0.3006,0.3049,0.299,0.3045,0.3047,0.2876,0.2947,0.3026,0.3111,0.3114,0.3116,0.3117,0,0.2021,0.2083,0.2167,0.2284,0.2314,0.2379,0.251,0.2585,0.2718,0.2787,0.2879,0.293,0.3034,0.301,0.3124,0.3093,0.3117,0.3136,0.3139,0.2963,0.2897,0.3022,0.314,0.3139,0.3137,0.3135,0.3134,0,0.1964,0.2086,0.2155,0.2197,0.2332,0.2402,0.2485,0.2618,0.2689,0.2846,0.2915,0.3026,0.3102,0.3155,0.3213,0.3186,0.3318,0.3272,0.3132,0.312,0.3221,0.3208,0.3341,0.3341,0.3341,0.334,0.334,0,0.1937,0.1999,0.2145,0.2183,0.2279,0.2389,0.2497,0.2602,0.2744,0.2829,0.2955,0.3029,0.3149,0.323,0.3254,0.3238,0.3352,0.3155,0.3134,0.3247,0.3236,0.323,0.3216,0.3343,0.3343,0.3342,0.3342,0,0.1854,0.1951,0.2037,0.2197,0.2252,0.2323,0.2491,0.256,0.2721,0.2837,0.2895,0.3066,0.3175,0.326,0.336,0.3272,0.3284,0.3248,0.3384,0.3367,0.3045,0.3034,0.3083,0.3077,0.3073,0.3069,0.3066,0,0.1813,0.1852,0.2022,0.2075,0.2156,0.2277,0.2354,0.253,0.2601,0.2833,0.2874,0.3045,0.3138,0.3129,0.3244,0.3268,0.3231,0.3203,0.3099,0.3046,0.3022,0.3017,0.3013,0.3059,0.3058,0.3056,0.3055,0,0.1732,0.181,0.188,0.1991,0.2085,0.2166,0.23,0.2327,0.2527,0.2694,0.2774,0.2833,0.2951,0.3017,0.3064,0.3076,0.3199,0.3155,0.3163,0.3064,0.3017,0.2997,0.2997,0.304,0.3042,0.3043,0.3044,0,0.1673,0.17,0.1803,0.1881,0.1988,0.2032,0.2112,0.22,0.2286,0.2532,0.2561,0.2752,0.2921,0.2921,0.2974,0.2969,0.2912,0.2793,0.2819,0.2837,0.272,0.2623,0.2516,0,0,0,0,0,0.16,0.1616,0.1684,0.1758,0.1855,0.192,0.2064,0.2147,0.2333,0.2321,0.2428,0.2526,0.2602,0.2708,0.2654,0.2882,0.2933,0.2807,0.281,0.2953,0.2971,0.2856,0,0,0,0,0,0,0.1551,0.161,0.1635,0.1635,0.1661,0.1751,0.1835,0.1965,0.1964,0.2162,0.2215,0.2372,0.2485,0.2603,0.2604,0.2636,0.2585,0.293,0.2923,0.2943,0.2959,0.2973,0.2862,0,0,0,0,0]},{"header":{"parameterUnit":"m.s-1","parameterCategory":2,"la1":30.2991,"la2":30.254,"lo1":-89.0895,"lo2":-89.0444,"dy":0.0017,"dx":0.0017,"nx":28,"ny":28,"refTime":"2024-02-07T09:00:00:Z","depth":"4","parameterNumber":3,"parameterNumberName":"V-component_of_CURRENTS"},"data":[0,0,0,0,0,0,0,0,0,0,0,0,0,0,0,0,0,0,0,0,0,0,0,0,0,0,0,0,0,0,0,0,0,0,0,0,0,0,0,0,0,0,0,0,0,0,0,0,0,0,0,0,0,0,0,0,0,0,0.001,0.001,0,-0.0062,-0.0063,-0.0064,-0.0111,-0.0112,-0.0112,-0.0112,-0.0214,-0.0216,-0.0219,0,0,0,0,0,0,0,0,0,0,0,0,0,0.0059,0.0058,0.001,0.001,0.0009,-0.0062,-0.0063,-0.0064,-0.0111,-0.0112,-0.0112,-0.0112,-0.0213,-0.0216,-0.0219,0,0,0,0,0,0,0,0,0,0,0,0,0,0.0016,0.0058,0.0011,-0.0022,-0.0026,-0.0061,-0.0063,-0.0064,-0.0111,-0.0112,-0.0112,-0.0112,-0.0212,-0.0216,-0.022,-0.0237,0,0,-0.0231,-0.0233,0,0,0,0,0,0,0,0,0.0019,0.0014,-0.0017,-0.002,-0.0024,-0.0077,-0.0083,-0.0123,-0.0111,-0.008,-0.0112,-0.0112,-0.017,-0.0177,-0.0191,-0.0241,-0.0246,-0.0231,-0.0234,-0.0235,-0.0236,0,0,0,0,0,0,0,0.0022,0.0017,-0.0019,-0.0018,-0.0022,-0.005,-0.0056,-0.0091,-0.0124,-0.0083,-0.0086,-0.0092,-0.0172,-0.0188,-0.0194,-0.0247,-0.0231,-0.0235,-0.0237,-0.0239,-0.032,-0.0319,0,0,0,0,0,0,0.0036,0.002,-0.0017,-0.0021,-0.0002,-0.005,-0.0057,-0.0061,-0.0123,-0.0132,-0.0092,-0.0094,-0.0181,-0.019,-0.0198,-0.021,-0.0235,-0.0239,-0.0241,-0.032,-0.032,-0.0319,0,0,0,0,0,0,0.0037,0.0034,-0.0014,-0.0002,-0.0009,-0.005,-0.0054,-0.0062,-0.0077,-0.0129,-0.0139,-0.0099,-0.0182,-0.0193,-0.0226,-0.0215,-0.0241,-0.0244,-0.032,-0.032,-0.0319,-0.0242,0,0,0,0,0,0,0.0039,0.0035,0.0037,-0.0,-0.001,-0.003,-0.0054,-0.0063,-0.008,-0.0084,-0.0139,-0.0149,-0.0183,-0.022,-0.023,-0.0221,-0.0247,-0.032,-0.032,-0.032,-0.0245,-0.024,-0.0235,0,0,0,0,0,0.0041,0.0047,0.0038,0.0033,-0.0004,-0.0029,-0.0037,-0.0068,-0.008,-0.0084,-0.012,-0.0147,-0.0226,-0.0223,-0.0235,-0.0226,-0.032,-0.032,-0.032,-0.0247,-0.0241,-0.0235,0,0,0,0,0,0,0.0068,0.0042,0.0031,0.0028,0.0005,-0.0037,-0.0041,-0.0063,-0.0096,-0.0097,-0.0148,-0.016,-0.0186,-0.0219,-0.0215,-0.025,-0.0276,-0.0278,-0.0218,-0.0212,-0.0207,-0.0187,-0.025,0,0,0,0,0,0.0077,0.0077,0.0044,0.0044,0.0035,-0.0002,-0.0015,-0.0035,-0.0068,-0.0082,-0.012,-0.016,-0.0194,-0.0212,-0.0248,-0.0268,-0.0303,-0.027,-0.0265,-0.026,-0.0253,-0.0299,-0.0297,-0.0319,-0.0319,-0.0319,0,0,0.0088,0.0075,0.0074,0.005,0.0031,0.0027,-0.0011,-0.0024,-0.0027,-0.0088,-0.0104,-0.0145,-0.0196,-0.0217,-0.0231,-0.0242,-0.0273,-0.026,-0.0256,-0.0251,-0.0299,-0.0297,-0.0295,-0.0318,-0.0318,-0.0318,0,0,0.0115,0.0099,0.0109,0.0093,0.007,0.0051,0.005,0.0013,-0.0004,-0.0027,-0.0069,-0.0103,-0.0154,-0.0187,-0.0211,-0.0201,-0.0245,-0.0211,-0.0167,-0.0211,-0.021,-0.0209,-0.0245,-0.0248,-0.0206,-0.0206,-0.0206,0,0.013,0.0137,0.0108,0.0111,0.0108,0.0067,0.0079,0.0054,0.0011,0.0002,-0.0021,-0.0094,-0.014,-0.0164,-0.0161,-0.0189,-0.0217,-0.0183,-0.0203,-0.0203,-0.0204,-0.0241,-0.0245,-0.0202,-0.0202,-0.0203,-0.0203,0,0.0159,0.0166,0.017,0.0167,0.0161,0.0162,0.0132,0.0119,0.0096,0.0069,0.0037,-0.0029,-0.007,-0.0091,-0.0124,-0.0143,-0.0164,-0.0192,-0.0214,-0.0196,-0.0237,-0.0243,-0.0197,-0.0198,-0.0199,-0.02,0,0,0.0191,0.0192,0.0195,0.0211,0.0192,0.0195,0.0192,0.0179,0.0183,0.0131,0.0128,0.006,0.0024,-0.0005,-0.0055,-0.0094,-0.0125,-0.0134,-0.0138,-0.016,-0.0214,-0.0213,-0.0219,-0.0153,-0.0154,-0.0155,-0.024,0,0.0225,0.0254,0.0244,0.0281,0.0295,0.0268,0.0273,0.0257,0.0229,0.0212,0.0143,0.0119,0.0057,0.0043,-0.0008,-0.0094,-0.0137,-0.0099,-0.0237,-0.0241,-0.0233,-0.0225,-0.0157,-0.0244,-0.0246,-0.0247,-0.0247,0,0.0257,0.0274,0.0317,0.0347,0.0352,0.0368,0.0379,0.0381,0.0342,0.0314,0.0271,0.0218,0.0156,0.01,-0.0037,-0.0007,-0.0101,-0.0174,-0.018,-0.0208,-0.0249,-0.027,-0.0258,-0.0257,-0.0257,-0.0256,-0.0255,0,0.0298,0.0329,0.0373,0.0378,0.0398,0.0419,0.0433,0.0415,0.0431,0.0386,0.0385,0.0293,0.0258,0.013,-0.0019,-0.0027,-0.0171,-0.0208,-0.0297,-0.0299,-0.0309,-0.0309,-0.0309,-0.0308,-0.0308,-0.0308,-0.0308,0,0.0334,0.0369,0.0398,0.0419,0.0479,0.0478,0.0528,0.0517,0.0518,0.0549,0.045,0.0441,0.0266,0.0164,0.0012,-0.015,-0.0153,-0.0285,-0.0319,-0.0275,-0.027,-0.0313,-0.0312,-0.0311,-0.031,-0.031,-0.0309,0,0.0368,0.0382,0.0438,0.0479,0.0501,0.0547,0.0604,0.0636,0.0622,0.0658,0.0655,0.056,0.0423,0.024,0.0033,-0.0095,-0.0263,-0.0325,-0.0248,-0.0277,-0.037,-0.0365,-0.043,-0.0431,-0.0432,-0.0432,-0.0432,0,0.0385,0.0417,0.0489,0.0533,0.0557,0.062,0.0666,0.0683,0.0724,0.0731,0.0757,0.0652,0.0559,0.028,0.0064,-0.0221,-0.0271,-0.0359,-0.0381,-0.0355,-0.0382,-0.0376,-0.037,-0.0433,-0.0433,-0.0433,-0.0434,0,0.0419,0.0448,0.0494,0.0587,0.0652,0.0723,0.0793,0.0834,0.0866,0.0858,0.0847,0.0703,0.0546,0.0305,0.0086,-0.0126,-0.0302,-0.0365,-0.0366,-0.0388,-0.0359,-0.0384,-0.0378,-0.0435,-0.0435,-0.0435,-0.0435,0,0.0449,0.0487,0.0554,0.0637,0.0725,0.0808,0.0837,0.089,0.093,0.0944,0.0939,0.076,0.066,0.0354,0.015,-0.0054,-0.0122,-0.0198,-0.021,-0.021,-0.0131,-0.0061,-0.0067,0,0,0,0,0,0.0472,0.0518,0.0598,0.0689,0.0779,0.0832,0.0919,0.0941,0.0977,0.0989,0.0971,0.0826,0.0534,0.0402,0.0199,0.0109,-0.0177,-0.014,-0.0275,-0.0445,-0.0443,-0.0389,0,0,0,0,0,0,0.0486,0.0559,0.0597,0.0717,0.079,0.0891,0.0952,0.0979,0.098,0.0988,0.0837,0.0768,0.0479,0.0657,0.0195,0.0131,0.0014,-0.0277,-0.0282,-0.0446,-0.0445,-0.0443,-0.0386,0,0,0,0,0]}]]